Regional Weather Roundup
Issued by NWS Sterling, VA

Home | Current Version | Previous Version | Graphics & Text | Print | Product List | Glossary Off
Versions: 1 2 3 4 5 6 7 8 9 10 11 12 13 14 15 16 17 18 19 20 21 22 23 24 25 26 27 28 29 30 31 32 33 34 35 36 37 38 39 40 41 42 43 44 45 46 47 48 49 50

000
ASUS41 KLWX 211510
RWRLWX

REGIONAL WEATHER ROUNDUP
NATIONAL WEATHER SERVICE BALTIMORE MD/WASHINGTON DC
1100 AM EDT THU SEP 21 2017

Note: "FAIR" indicates few or no clouds below 12,000 feet
with no significant weather and/or obstructions to visibility.
 TC=TEMPERATURE CELSIUS

 * =Non NWS site. Station does not report precipitation (e.g. rain,
    snow, etc.), thunder, or fog.

DCZ001-MDZ009-015-VAZ040>042-051-053>054-211600-
WASHINGTON METRO

CITY           SKY/WX    TMP DP  RH WIND       PRES   REMARKS
WASHINGTON NAT MOSUNNY   82  66  58 N5        30.06F
DULLES         MOSUNNY   79  65  62 N6        30.07F
ANDREWS AFB    SUNNY     79  64  59 NE5       30.05S
FT BELVOIR     MOSUNNY   81  68  65 VRB3      30.06S
QUANTICO       MOSUNNY   78  68  71 E7        30.07S
COLLEGE PARK*  SUNNY     79  64  59 CALM      30.05F
LEESBURG*      SUNNY     79  66  65 NE7       30.09S
MANASSAS*      SUNNY     80  65  59 N7        30.07F
GAITHERSBURG*  SUNNY     80  66  62 CALM      30.08F

$$

MDZ006>007-011-014-211600-
BALTIMORE METRO

CITY           SKY/WX    TMP DP  RH WIND       PRES   REMARKS
BWI AIRPORT    MOSUNNY   82  64  54 N5        30.04F
MD SCIENCE CTR   N/A     82  63  52 MISG      30.05F
MARTIN STATE   MOSUNNY   81  70  69 NW6       30.06F
ANNAPOLIS      SUNNY     81  69  67 NW3       30.04F
FORT MEADE*    SUNNY     79  64  61 N3        30.08S

$$

MDZ012-015-019>023-211600-
MARYLAND EASTERN SHORE

CITY           SKY/WX    TMP DP  RH WIND       PRES   REMARKS
OCEAN CITY     SUNNY     81  67  62 N13       30.02F
SALISBURY      SUNNY     81  66  60 NE9       30.02F
CAMBRIDGE*     SUNNY     79  68  69 VRB5      30.04S
EASTON*        MOSUNNY  N/A N/A N/A N5        30.08S

$$

MDZ017>025-211600-
SOUTHERN MARYLAND

CITY           SKY/WX    TMP DP  RH WIND       PRES   REMARKS
PATUXENT RIVER MOSUNNY   81  69  67 N6        30.04S
ST INIGOES     SUNNY     82  69  64 VRB7      30.03F
LEONARDTOWN*   SUNNY     77  66  69 N5        30.06S

$$

MDZ003>005-211600-
NORTH CENTRAL MARYLAND

CITY           SKY/WX    TMP DP  RH WIND       PRES   REMARKS
FREDERICK*     SUNNY     75  63  64 CALM      30.11F
HAGERSTOWN APT MOSUNNY   73  62  68 CALM      30.10S
WESTMINSTER*   MOSUNNY   75  66  73 CALM      30.09F

$$

MDZ501>502-211600-
WESTERN MARYLAND

CITY           SKY/WX    TMP DP  RH WIND       PRES   REMARKS
OAKLAND*       SUNNY     70  59  68 N3        30.19R
CUMBERLAND*    SUNNY     73  63  68 CALM      30.16S

$$

VAZ025>031-211600-
SHENANDOAH VALLEY

CITY           SKY/WX    TMP DP  RH WIND       PRES   REMARKS
WINCHESTER*    SUNNY     73  63  68 CALM      30.10S
FRONT ROYAL*   SUNNY     73  63  68 CALM      30.10S
LURAY*         SUNNY     75  64  69 CALM      30.11F
NEW MARKET*    SUNNY     79  61  53 E3        30.10F
STAUNTON*      SUNNY     74  63  69 CALM      30.15S
WAYNESBORO*    SUNNY     74  65  71 NW5       30.14S

$$

WVZ021-048>050-054>055-211600-
EASTERN WEST VIRGINIA PANHANDLE

CITY           SKY/WX    TMP DP  RH WIND       PRES   REMARKS
MARTINSBURG    SUNNY     76  62  62 CALM      30.09F
PETERSBURG*    SUNNY     79  67  66 CALM      30.13S HAZE

$$

VAZ036>039-050-211600-
CENTRAL FOOTHILLS

CITY           SKY/WX    TMP DP  RH WIND       PRES   REMARKS
CHARLOTTESVILL SUNNY     82  65  56 SE3       30.09S
CULPEPER*      SUNNY     80  66  61 CALM      30.09S
ORANGE*        SUNNY     77  63  61 CALM      30.09S
GORDONSVILLE*  SUNNY     79  65  62 NE7       30.08S
WARRENTON*     SUNNY     81  61  50 N5        30.07F

$$

VAZ055>057-211600-
NORTH AND CENTRAL PIEDMONT

CITY           SKY/WX    TMP DP  RH WIND       PRES   REMARKS
FREDERICKSBRG* SUNNY     80  66  62 NE6       30.06S
STAFFORD*      SUNNY     79  64  60 N6        30.10F

$$

NCZ024-NYZ072-PAZ021-071-VAZ022-071-211600-
OTHER REGIONAL OBSERVATIONS

CITY           SKY/WX    TMP DP  RH WIND       PRES   REMARKS
NEW YORK CITY  CLOUDY    77  64  64 VRB7      30.05R
PHILADELPHIA   MOSUNNY   82  64  54 N13       30.03F
PITTSBURGH     SUNNY     77  66  68 CALM      30.13F
ROANOKE        PTSUNNY   76  65  68 N10       30.15S
RICHMOND       MOSUNNY   82  65  56 NE7       30.05F
RALEIGH        MOSUNNY   80  66  62 VRB6      30.06F

$$

ANZ530>537-211600-
MARINE OBSERVATIONS

STATION/POSITION TIME  TEMP    WIND        PRES
                       AIR SEA DIR/SP/G
                 (UTC) (F)     (DEG/KT/KT) (MB)
THOMAS PT LIGHT  1500   74 76   20/  6/  6   N/A
BALT KEY BRIDGE  1448   78     160/  1/  2 1017.3F
COVE POINT       1448   74     360/  8/ 10 1018.1S
LEWISETTA        1448   76 76  350/  2/  3 1017.1F
SOLOMONS ISLAND  1448   77 76  360/  6/  8 1016.9F
PINEY POINT      1448          320/  7/  8   N/A

$$




USA.gov is the U.S. government's official web portal to all federal, state and local government web resources and services.